Current weather by "City, St" or "zip code"  
 

Current Conditions: Huntsville, Huntsville International / Jones Field, AL

Fair


68.0 F

Last Updated on Sep 18 2020, 1:53 am CDT
Humidity: 76%
Wind Speed: N 5.8 mph
Barometer 29.92 in
Dewpoint: 60.1 F
Visibility: 10.00 mi
Precip: --
Heat Index: NA
Wind Chill: NA
Current conditions at:

Huntsville, Huntsville International / Jones Field, AL (KHSV)

Lat: 34.64361 Lon: 86.78556

Local Radar Image active severe weather and emergency alerts image image weather storm and storm spotter reports image weather observation monitoring service image
Local
Radar
Active
Alerts
Storm Reports Obs
Monitoring

Sign-up For Email & Text Message Weather Alert Notification Services



Advertise Here

Observation History for Huntsville, Huntsville International / Jones Field, AL


Time Wind
(mph)
Vis
(mi)
Weather Precip (in) Temperature (F) Relative
Humidity
Wind
Chill
(F)
Heat
Index
(F)
Pressure
Air Dwpt altimeter
(in)
sea level
(mb)
Rmks
1:53 am CDT N 5.8 10.00 Fair -- 68.0 60.1 76% NA NA 29.92 1012.5
12:53 am CDT N 13.8 10.00 Fair -- 71.0 60.1 68% NA NA 29.90 1011.7
11:53 pm CDT N 8.1 10.00 Mostly Cloudy -- 72.0 61.0 68% NA NA 29.92 1012.3
10:53 pm CDT N 8.1 10.00 Mostly Cloudy -- 72.0 62.1 71% NA NA 29.91 1012.1
9:53 pm CDT N 9.2 10.00 Mostly Cloudy -- 73.0 62.1 69% NA NA 29.90 1011.9
8:53 pm CDT N 10.4 10.00 Mostly Cloudy -- 75.0 62.1 64% NA NA 29.90 1011.8
7:53 pm CDT N 10.4 10.00 Partly Cloudy -- 76.0 64.0 67% NA NA 29.88 1011.1
6:53 pm CDT N 12.7 10.00 Partly Cloudy -- 79.0 64.0 60% NA NA 29.86 1010.4
5:53 pm CDT N 10.4 10.00 A Few Clouds -- 83.0 63.0 51% NA 84 29.85 1009.9
4:53 pm CDT N 17.3 G 25.3 10.00 A Few Clouds -- 85.0 63.0 48% NA 86 29.83 1009.3
3:53 pm CDT N 17.3 G 23.0 10.00 Partly Cloudy -- 86.0 66.0 51% NA 88 29.83 1009.2
2:53 pm CDT N 13.8 G 25.3 10.00 Mostly Cloudy -- 83.0 64.9 55% NA 85 29.83 1009.4
1:53 pm CDT N 12.7 10.00 Mostly Cloudy -- 85.0 64.0 50% NA 86 29.84 1009.8
12:53 pm CDT NE 13.8 G 23.0 10.00 Partly Cloudy -- 87.0 64.9 48% NA 89 29.85 1010.1
11:53 am CDT NE 15.0 10.00 Partly Cloudy -- 83.0 66.9 59% NA 86 29.86 1010.4
10:53 am CDT NE 11.5 10.00 Mostly Cloudy -- 81.0 68.0 65% NA 84 29.88 1011.1
9:53 am CDT N 11.5 10.00 Mostly Cloudy -- 79.0 66.9 67% NA NA 29.88 1010.9
8:53 am CDT N 10.4 10.00 A Few Clouds -- 77.0 66.9 71% NA NA 29.86 1010.4
7:53 am CDT NE 8.1 10.00 Mostly Cloudy -- 73.0 66.0 79% NA NA 29.85 1010.1
6:53 am CDT N 8.1 10.00 Mostly Cloudy -- 72.0 66.0 82% NA NA 29.85 1010.0
5:53 am CDT N 6.9 10.00 Mostly Cloudy -- 71.0 66.9 87% NA NA 29.84 1009.7
4:53 am CDT NE 8.1 10.00 Mostly Cloudy -- 71.0 66.0 84% NA NA 29.83 1009.5
3:53 am CDT N 6.9 10.00 Overcast -- 72.0 66.9 84% NA NA 29.85 1010.3
2:53 am CDT N 8.1 10.00 Mostly Cloudy -- 71.0 66.9 87% NA NA 29.86 1010.6

Regional Weather Observation


Huntsville, Huntsville International / Jones Field, AL (KHSV)

Fair
68.0 F

Redstone Airfield, AL (KHUA)

Fair
67.0 F

Huntsville, Madison County Executive Airport, AL (KMDQ)

Fair
66.0 F

Muscle Shoals, North West Alabama Regional Airport, AL (KMSL)

Fair
70.0 F

Folsom Field Airport, AL (K3A1)

Partly Cloudy
82.0 F

Haleyville, Posey Field Airport, AL (K1M4)

Fair
63.0 F